Content
SEND FEEDBACK

Daily
Averages
Monthly
Summary
United States of America

ST. STEPHENS, WYOMING


Home > North America > United States > Wyoming
Elevation: 4935 feet     Latitude: 43 01N     Longitude: 108 23W

WEATHER
 
SELECT A DAY
Number of Records: 183,357;   Date Range: 1/1/95 - 7/23/14
 
SHARE

PRINT THIS DATA

[ ← Previous Day ]
WEATHER ALMANAC - JANUARY 23, 2013
[ Next Day → ]
[ °C ]   °F
Weather ElementAverageHighLow
Temperature25 °F34 °F (3:53 pm)16 °F (7:53 am)
Dewpoint12.9 °F19.4 °F (2:53 pm)8.1 °F (5:53 am)
Humidity60.6 %72 % (5:53 pm)44 % (3:53 pm)
Barometer30.21 in30.27 in (5:53 am)30.08 in (2:53 pm)
Wind Speed2.5 mph8.1 mph (6:53 pm)
Weather ElementAverage
Visibility10 mi
Wind DirectionESE (118.3 °)

Weather ElementTotal
Precipitation---
Heating Degree Days40 (Base 65)
Averaged from 23 records on January 23, 2013
WEATHER CONDITIONS BREAKOUT
WIND DIRECTION BREAKOUT
WEATHER BY HOUR - JANUARY 23, 2013
[ °C ]   °F
Local TimeTemperatureDewpointHumidityBarometerVisibilityWind DirectionWind SpeedGust SpeedPrecipitationEventsConditions
1:53 AM21.0 °F10.0 °F63 %30.25 in10.0 miENE (60°)3.5 mphClear
2:53 AM21.0 °F9.0 °F60 %30.25 in10.0 miNorth (350°)3.5 mphClear
3:53 AM19.9 °F10.0 °F65 %30.25 in10.0 miCalmClear
4:53 AM19.0 °F9.0 °F65 %30.24 in10.0 miWSW (250°)4.6 mphClear
5:53 AM18.0 °F8.1 °F65 %30.27 in10.0 miWSW (240°)4.6 mphClear
6:53 AM18.0 °F9.0 °F68 %30.25 in10.0 miWest (260°)6.9 mphClear
7:53 AM16.0 °F8.1 °F71 %30.27 in10.0 miNorth (10°)4.6 mphClear
8:53 AM19.0 °F10.0 °F68 %30.26 in10.0 miCalmClear
9:53 AM27.0 °F12.0 °F53 %30.26 in10.0 miCalmClear
10:53 AM27.0 °F14.0 °F58 %30.26 in10.0 miCalmClear
11:53 AM28.0 °F15.1 °F58 %30.23 in10.0 miCalmClear
12:53 PM32.0 °F15.1 °F50 %30.19 in10.0 miCalmClear
1:53 PM33.1 °F16.0 °F50 %30.19 in10.0 miCalmClear
2:53 PM32.0 °F19.4 °F60 %30.08 in10.0 miCalmClear
3:53 PM34.0 °F14.0 °F44 %30.18 in10.0 miNorth (350°)5.8 mphClear
4:53 PM28.0 °F18.0 °F66 %30.20 in10.0 miCalmClear
5:53 PM23.0 °F15.1 °F72 %30.22 in10.0 miCalmClear
6:53 PM27.0 °F16.0 °F63 %30.21 in10.0 miNW (320°)8.1 mphClear
7:53 PM27.0 °F15.1 °F61 %30.22 in10.0 miNNW (340°)4.6 mphClear
8:53 PM25.0 °F14.0 °F63 %30.20 in10.0 miWest (270°)3.5 mphClear
9:53 PM27.0 °F12.9 °F56 %30.16 in10.0 miCalmClear
10:53 PM28.0 °F14.0 °F56 %30.15 in10.0 miWest (270°)6.9 mphClear
11:53 PM25.0 °F12.0 °F58 %30.15 in10.0 miCalmClear
Hourly data recorded from KRIW, located miles away from St. Stephens, Wyoming







STORIES FROM OUR PARTNERS